TRA172 LIBD-LEIB

Flight info

Callsign TRA172
Flight time N/A
Altitude 32000
Route TOPNO L995 DOGUS DCT PNZ DCT ROTUN DCT TURMO DCT POKAV DCT GOKMI DCT SUPUX DCT KUPIM DCT SUXER DCT RIPAL DCT MORSS
Aircraft A321/M-SDE3FGHIRWY/LB1

Departure

Time 2026-04-27 07:47
Airport Bari Karol Wojtyła International Airport (LIBD)

Arrival

Time N/A
Airport Ibiza Airport (LEIB)
Time Latitude Longitude Altitude Speed Heading
2026-04-27 07:40 41.13577 16.76512 136 ft 0 kts 159°
2026-04-27 07:41 41.13580 16.76510 137 ft 4 kts 159°
2026-04-27 07:41 41.13606 16.76497 137 ft 4 kts 158°
2026-04-27 07:41 41.13626 16.76485 137 ft 2 kts 144°
2026-04-27 07:41 41.13636 16.76475 137 ft 2 kts 103°
2026-04-27 07:42 41.13636 16.76460 137 ft 2 kts 71°
2026-04-27 07:42 41.13633 16.76448 136 ft 0 kts 69°
2026-04-27 07:42 41.13640 16.76474 136 ft 10 kts 69°
2026-04-27 07:43 41.13716 16.76558 136 ft 16 kts 14°
2026-04-27 07:43 41.13812 16.76595 134 ft 16 kts 55°
2026-04-27 07:43 41.13855 16.76740 128 ft 19 kts 73°
2026-04-27 07:43 41.13904 16.76911 122 ft 20 kts 70°
2026-04-27 07:44 41.13952 16.77085 121 ft 17 kts 68°
2026-04-27 07:44 41.13986 16.77198 123 ft 13 kts 68°
2026-04-27 07:44 41.14017 16.77306 119 ft 13 kts 69°
2026-04-27 07:44 41.14078 16.77391 119 ft 14 kts 25°
2026-04-27 07:45 41.14176 16.77416 115 ft 15 kts 348°
2026-04-27 07:45 41.14206 16.77306 118 ft 14 kts 254°
2026-04-27 07:45 41.14178 16.77213 117 ft 0 kts 249°
2026-04-27 07:46 41.14167 16.77172 120 ft 28 kts 250°
2026-04-27 07:46 41.13977 16.76497 124 ft 123 kts 250°
2026-04-27 07:47 41.13576 16.75215 525 ft 159 kts 244°
2026-04-27 07:47 41.13173 16.73825 1473 ft 164 kts 253°
2026-04-27 07:47 41.12800 16.72351 2265 ft 172 kts 250°
2026-04-27 07:47 41.12372 16.70791 2576 ft 190 kts 250°
2026-04-27 07:48 41.11884 16.69058 2784 ft 211 kts 249°
2026-04-27 07:48 41.11343 16.67162 2957 ft 235 kts 249°
2026-04-27 07:48 41.10733 16.65025 3329 ft 256 kts 249°
2026-04-27 07:48 41.10100 16.62820 4103 ft 262 kts 249°
2026-04-27 07:49 41.09436 16.60518 4984 ft 266 kts 249°
2026-04-27 07:49 41.08772 16.58210 5840 ft 269 kts 249°
2026-04-27 07:49 41.08103 16.55872 6682 ft 273 kts 249°
2026-04-27 07:49 41.07440 16.53534 7491 ft 276 kts 249°
2026-04-27 07:50 41.06757 16.51136 8317 ft 280 kts 249°
2026-04-27 07:50 41.06063 16.48705 9119 ft 284 kts 249°
2026-04-27 07:50 41.05361 16.46246 9877 ft 287 kts 249°
2026-04-27 07:50 41.04642 16.43730 10402 ft 302 kts 249°
2026-04-27 07:51 41.03870 16.41028 10631 ft 324 kts 249°
2026-04-27 07:51 41.03058 16.38179 11163 ft 335 kts 249°
2026-04-27 07:51 41.02229 16.35273 11868 ft 339 kts 249°
2026-04-27 07:51 41.01387 16.32333 12580 ft 343 kts 249°
2026-04-27 07:52 41.00534 16.29366 13277 ft 347 kts 249°
2026-04-27 07:52 40.99667 16.26359 13961 ft 351 kts 249°
2026-04-27 07:52 40.98793 16.23327 14639 ft 355 kts 249°
2026-04-27 07:52 40.97907 16.20262 15286 ft 358 kts 249°
2026-04-27 07:53 40.97009 16.17167 15947 ft 361 kts 249°
2026-04-27 07:53 40.96154 16.14027 16585 ft 365 kts 255°
2026-04-27 07:53 40.95713 16.10714 17193 ft 368 kts 266°
2026-04-27 07:53 40.95800 16.07322 17786 ft 371 kts 278°
2026-04-27 07:54 40.96335 16.03967 18372 ft 375 kts 283°
2026-04-27 07:54 40.96922 16.00597 18950 ft 378 kts 283°
2026-04-27 07:54 40.97505 15.97189 19524 ft 381 kts 282°
2026-04-27 07:54 40.98085 15.93755 20068 ft 384 kts 282°
2026-04-27 07:55 40.98665 15.90287 20603 ft 387 kts 282°
2026-04-27 07:55 40.99246 15.86793 21122 ft 390 kts 282°
2026-04-27 07:55 40.99831 15.83270 21630 ft 393 kts 282°
2026-04-27 07:55 41.00422 15.79722 22137 ft 396 kts 282°
2026-04-27 07:56 41.01021 15.76150 22618 ft 399 kts 282°
2026-04-27 07:56 41.01623 15.72549 23097 ft 402 kts 281°
2026-04-27 07:56 41.01950 15.68867 23527 ft 405 kts 271°
2026-04-27 07:56 41.01874 15.65133 23940 ft 408 kts 268°
2026-04-27 07:57 41.01762 15.61362 24357 ft 411 kts 268°
2026-04-27 07:57 41.01651 15.57562 24782 ft 414 kts 268°
2026-04-27 07:57 41.01575 15.54985 25082 ft 415 kts 268°